Location: *
(34.9013°N, 0.5546°E)
Time: 03:05:48
(UTC+00:00)

Daily predictions for brighter satellites

Satellite Brightness Start Highest point End
(mag) Time Altitude Azimuth Time Altitude Azimuth Time Altitude Azimuth
CENTAUR R/B 3.7 02:31:07 35° E 02:31:07 35° E 02:35:43 10° NE
Atlas Centaur 2 3.6 02:39:28 39° ESE 02:39:28 39° ESE 02:44:33 10° E
USA 238 DEB 4.4 02:43:42 44° N 02:43:42 44° N 02:48:33 10° NNE
USA 238 4.4 02:43:47 45° N 02:43:47 45° N 02:48:39 10° NNE
Cosmos 2369 Rocket 3.1 02:51:13 47° NE 02:51:13 47° NE 02:55:27 10° NNE
SeaSat 1 3.5 02:59:05 10° NE 03:03:18 40° E 03:03:18 40° E
IDEFIX/ARIANE 42P 3.9 03:06:12 10° NNE 03:11:02 36° E 03:13:05 27° SE
Cosmos 967 Rocket 4.5 03:05:22 10° NNW 03:11:50 82° ENE 03:18:18 10° SSE
ADEOS II 3.8 03:15:13 10° N 03:17:16 22° NNW 03:17:16 22° NNW
Nadezhda 4 Rocket 3.8 03:23:21 71° WNW 03:23:21 71° WNW 03:29:09 10° N
Cosmos 2344 3.8 03:23:38 47° WNW 03:24:14 48° NW 03:31:51 10° NNE
USA 215 3.4 03:18:45 10° NE 03:25:16 68° SE 03:26:57 50° SSW
Lacrosse 5 rocket 4.1 03:23:24 10° N 03:26:18 18° NE 03:29:19 10° E
Cosmos 1400 Rocket 4.0 03:27:09 40° ENE 03:27:09 40° ENE 03:30:19 10° NNE
NOSS 3-2 (A) 4.4 03:28:31 31° NW 03:28:31 31° NW 03:33:32 10° NNE
Hubble Space Telescope 2.8 03:29:54 21° SE 03:29:54 21° SE 03:31:43 10° ESE
NOSS 3-2 (C) 3.8 03:29:59 47° NW 03:29:59 47° NW 03:35:45 10° NNE
ISS -0.9 03:35:23 13° SE 03:35:23 13° SE 03:35:50 10° SE
ATLAS 3B R/B 2.6 03:35:33 58° W 03:36:25 63° WNW 03:42:59 10° NNE
BREEZE-M DEB (TANK) 4.0 03:37:56 48° NW 03:38:07 48° NW 03:41:27 10° NE
Cosmos 1943 Rocket 2.8 03:44:42 37° NW 03:44:42 37° NW 03:49:13 10° N
Cosmos 44 3.2 03:43:39 69° SSW 03:44:17 89° ESE 03:49:14 10° NNE
Meteor 1-14 Rocket 4.1 03:46:58 10° NNW 03:52:24 61° W 03:54:57 31° SSW
Iridium 4 Rocket 3.1 03:52:50 37° S 03:54:41 85° W 03:59:07 10° N
Cosmos 2263 4.3 03:54:15 48° W 03:54:56 51° WNW 04:00:24 10° N
SL-24 DEB 4.1 03:59:05 48° SSW 04:00:09 62° W 04:04:48 10° NNW
Cosmos 2026 Rocket 3.9 03:56:52 13° S 04:02:29 81° W 04:08:51 10° N
Cosmos 1461 3.2 04:00:01 10° NNW 04:04:04 63° ENE 04:08:13 10° SE
ADEOS 3.7 04:04:34 10° N 04:09:35 50° WNW 04:11:28 34° SW
Cosmos 1862 Rocket 3.4 04:07:24 23° S 04:10:11 81° W 04:14:41 10° N
H-2A R/B 2.8 04:19:56 16° S 04:20:01 16° S 04:22:52 10° SE
CZ-4B R/B 4.3 04:16:50 10° NNE 04:20:26 54° E 04:23:59 10° S
CENTAUR R/B 3.3 04:18:19 26° W 04:20:29 32° NW 04:26:29 10° NNE
Aureole 2 Rocket 2.1 04:20:26 34° S 04:21:24 64° ESE 04:24:04 10° NNE
Cosmos 1340 4.3 04:18:58 10° N 04:22:29 36° ENE 04:25:58 10° SSE
ASTRO E2 3.8 04:22:51 25° SSW 04:24:22 33° SSE 04:27:59 10° E
Cosmos 482 Debris 3.5 04:24:50 47° W 04:25:27 64° SW 04:29:24 10° SE
Atlas Centaur 2 3.0 04:22:05 25° WSW 04:26:26 60° S 04:34:35 10° ESE
DELTA 2 R/B(2) 3.9 04:28:20 43° ENE 04:28:20 43° ENE 04:29:49 10° ENE
OAO 2 Rocket 4.2 04:26:28 19° SW 04:29:29 38° SSE 04:34:02 10° E
CZ-3B R/B 2.2 04:29:28 12° S 04:29:33 12° S 04:30:37 10° SSE
Meteor 2-9 4.5 04:24:44 10° NNW 04:30:07 71° W 04:35:26 10° S
SJ-6F 4.4 04:26:14 10° N 04:30:24 73° WNW 04:34:35 10° SSW
Meteor 1-27 Rocket 3.7 04:26:09 10° SSW 04:32:03 73° W 04:37:54 10° N
Cosmos 2369 Rocket 3.7 04:33:02 16° WNW 04:34:16 17° NW 04:37:58 10° NNW
Okean 1-7 4.0 04:31:59 10° SSE 04:36:14 51° E 04:40:31 10° NNE
SL-4 R/B 4.3 04:35:19 10° NNW 04:37:49 18° NNE 04:40:24 10° ENE
H-2A R/B 3.3 04:35:09 10° NNW 04:38:23 26° WNW 04:39:31 22° W
Centaur AC-119 3.9 04:35:59 19° SW 04:38:24 37° SSE 04:48:47 10° ESE
GPS 2-04 Rocket1 3.7 04:37:43 23° WSW 04:39:21 31° SSW 04:42:54 10° SE
OAO 1 Rocket 4.4 04:35:51 20° W 04:39:38 89° N 04:44:59 10° E
CZ-2C R/B 2.4 04:34:56 10° N 04:39:49 72° WNW 04:44:50 10° SSW
Cosmos 1833 4.1 04:34:46 10° NNW 04:40:22 71° WSW 04:45:56 10° SSE
SeaSat 1 3.7 04:37:10 10° N 04:40:59 23° NW 04:43:06 17° W
Cosmos 1315 Rocket 3.0 04:38:08 10° SSW 04:42:09 53° W 04:46:12 10° N
PAYLOAD A 4.1 04:40:48 10° N 04:45:21 47° WNW 04:49:49 10° SW
Cosmos 1908 Rocket 3.7 04:41:07 10° N 04:45:27 75° E 04:49:47 10° S
Cosmos 1656 Rocket 4.5 04:42:10 17° WSW 04:45:46 32° WNW 04:50:50 10° N
Okean O Rocket 3.6 04:44:34 10° NNE 04:48:36 32° E 04:52:35 10° SSE
Meteor 1-11 Rocket 3.7 04:44:11 10° NNW 04:49:41 62° W 04:55:06 10° S
IDEFIX/ARIANE 42P 3.7 04:46:15 10° NNW 04:50:22 24° WNW 04:53:52 13° WSW
Lacrosse 5 4.3 04:47:56 10° N 04:51:35 20° NE 04:55:14 10° E
Cosmos 44 Rocket 3.4 04:47:13 10° SSW 04:52:18 88° WNW 04:57:19 10° NNE
Cosmos 1500 3.3 04:49:42 10° NNW 04:53:19 49° W 04:56:57 10° SSW
COSMOS 2487 3.4 04:54:16 10° NW 04:57:08 24° W 04:59:59 10° SSW
Cosmos 1733 Rocket 4.0 04:53:28 10° NNW 04:57:13 27° W 05:00:57 10° SSW
Helios 1A Rocket 3.6 04:54:35 10° NNE 04:58:36 57° E 05:02:37 10° S
Cosmos 1812 4.0 05:01:36 10° SW 05:04:36 21° WNW 05:07:36 10° NNW
SJ-12 4.5 05:01:05 10° NNE 05:05:06 62° E 05:09:06 10° S
Lacrosse 5 rocket 1.5 05:01:30 10° NW 05:05:47 63° SW 05:10:15 10° SSE
USA 215 4.1 05:02:11 10° NNE 05:07:55 34° NNW 05:13:38 10° W
Sakura Rocket 4.3 05:03:44 10° WSW 05:08:26 46° S 05:14:53 10° ESE
Hubble Space Telescope 1.9 05:05:14 10° WSW 05:08:56 32° S 05:12:37 10° ESE
Cosmos 2266 Rocket 3.9 05:02:48 10° S 05:08:56 75° W 05:15:01 10° N
Chunghua 1 4.5 05:07:28 10° W 05:11:09 85° S 05:14:52 10° E
Okean 1 3.6 05:09:30 10° S 05:13:25 72° E 05:17:21 10° N
PSLV R/B 4.3 05:14:10 10° N 05:17:59 42° WNW 05:21:41 10° SW
SKYMED 2 3.6 05:16:33 10° SSE 05:20:53 88° ENE 05:25:14 10° NNW
CZ-3 R/B 3.6 05:03:13 10° W 05:29:17 45° SW 05:36:30 10° SE
